Location: ??????????
(48.5701°N, 37.7703°E)
Time: 19:51:53
(UTC+00:00)

Cosmos 1842 - Pass Details

Date: 14 July 2020
Orbit: 522 x 536 km, 82.5° (Epoch: 11 August)

Event Time Altitude Azimuth Distance (km) Brightness Sun altitude
Rises 00:41:25 0° 353° (N) 2,697 7.5 -8.4°
Reaches altitude 10° 00:43:36 10° 357° (N) 1,803 6.6 -8.1°
Maximum altitude 00:47:31 59° 78° (ENE) 625 3.9 -7.7°
Drops below altitude 10° 00:51:25 10° 159° (SSE) 1,790 5.7 -7.2°
Sets 00:53:35 0° 163° (SSE) 2,676 6.6 -7.0°
